Flag for Turkey Weather past 2 weeks in Izmir, Turkey

Now
55 °F

Broken clouds.


Feels Like: 54 °F
Forecast: 51 / 64 °F
Wind: 7 mph from Southeast

Location: Izmir / Adnan Menderes

Current Time: Mar 29, 2015 at 9:25:16 AM

Latest Report: Mar 29, 2015 at 8:50 AM


Visibility: N/A

Pressure: 29.74 "Hg

Humidity: 94%

Dew point: 54 °F

Location of IzmirLocation

Historic Weather in Izmir — Graph

°F

Izmir temperature yesterday

Maximum temperature yesterday: 59 °F (at 12:20 AM)
Minimum temperature yesterday: 50 °F (at 3:20 AM)
Average temperature yesterday: 55 °F

Past Weeks' High & Low Weather Summary

 TemperatureHumidityPressure
High70 °F (Mar 27, 11:50 AM)100% (Mar 23, 11:50 PM)30.36 "Hg (Mar 23, 11:50 PM)
Low30 °F (Mar 22, 5:20 AM)30% (Mar 19, 1:50 PM)29.65 "Hg (Mar 28, 5:20 AM)
Average50 °F73%30.04 "Hg
* Reported Mar 14 7:20 AM — Mar 29 8:20 AM, Izmir, Weather by CustomWeather, © 2015

Note: Actual official high and low records may vary slightly from our data, if they occured in-between our weather recording intervals... More about our weather records

Advertising

Izmir weather history for previous 24 hours

 ConditionsComfort  
Time TempWeatherWind HumidityBarometerVisibility
8:20 AM
Sun, Mar 29
54 °FBroken clouds.7 mph94%29.74 "HgN/A
7:50 AM54 °FPartly cloudy.6 mph94%29.71 "HgN/A
7:20 AM54 °FPartly cloudy.5 mph94%29.71 "HgN/A
6:50 AM54 °FPartly cloudy.5 mph94%29.71 "HgN/A
6:20 AM54 °FPartly cloudy.6 mph94%29.71 "HgN/A
5:50 AM54 °FSprinkles. Partly cloudy.3 mph94%29.71 "HgN/A
5:20 AM54 °FSprinkles. Partly cloudy.7 mph94%29.71 "HgN/A
4:50 AM54 °FSprinkles. Partly cloudy.7 mph94%29.71 "HgN/A
4:20 AM54 °FSprinkles. Partly cloudy.7 mph94%29.71 "HgN/A
2:50 AM54 °FPartly cloudy.7 mph94%29.71 "HgN/A
2:20 AM54 °FPartly cloudy.2 mph100%29.71 "HgN/A
1:50 AM54 °FPartly cloudy.5 mph100%29.71 "HgN/A
1:20 AM54 °FSprinkles. Partly cloudy.7 mph100%29.71 "HgN/A
12:50 AM54 °FSprinkles. Partly cloudy.6 mph100%29.71 "HgN/A
12:20 AM55 °FSprinkles. Partly cloudy.8 mph94%29.71 "HgN/A
11:50 PM
Sat, Mar 28
55 °FSprinkles. Partly cloudy.7 mph94%29.74 "HgN/A
11:20 PM55 °FSprinkles. Partly cloudy.10 mph94%29.71 "HgN/A
10:50 PM55 °FSprinkles. Partly cloudy.12 mph94%29.71 "HgN/A
10:20 PM55 °FPartly cloudy.7 mph94%29.71 "HgN/A
9:50 PM55 °FPartly cloudy.8 mph94%29.71 "HgN/A
9:20 PM55 °FSprinkles. Partly cloudy.8 mph94%29.71 "HgN/A
8:50 PM55 °FSprinkles. Partly cloudy.12 mph94%29.71 "HgN/A
8:20 PM54 °FSprinkles. Partly cloudy.9 mph100%29.68 "HgN/A
7:50 PM55 °FSprinkles. Partly cloudy.7 mph94%29.68 "HgN/A
7:20 PM55 °FSprinkles. Partly cloudy.8 mph94%29.68 "HgN/A
6:50 PM55 °FSprinkles. Partly cloudy.7 mph94%29.65 "HgN/A
6:20 PM55 °FSprinkles. Broken clouds.7 mph94%29.65 "HgN/A
5:50 PM55 °FSprinkles. Broken clouds.7 mph94%29.65 "HgN/A
5:20 PM55 °FSprinkles. Broken clouds.8 mph94%29.65 "HgN/A
4:50 PM55 °FSprinkles. Broken clouds.9 mph94%29.65 "HgN/A
4:20 PM57 °FSprinkles. Broken clouds.8 mph88%29.65 "HgN/A
3:50 PM57 °FSprinkles. Broken clouds.3 mph94%29.65 "HgN/A
3:20 PM59 °FSprinkles. Broken clouds.6 mph77%29.65 "HgN/A
2:50 PM59 °FSprinkles. Broken clouds.6 mph77%29.65 "HgN/A
2:20 PM57 °FSprinkles. Broken clouds.6 mph82%29.65 "HgN/A
1:50 PM57 °FSprinkles. Broken clouds.9 mph82%29.65 "HgN/A
1:20 PM57 °FSprinkles. Broken clouds.7 mph82%29.65 "HgN/A
12:50 PM55 °FSprinkles. Broken clouds.12 mph88%29.68 "HgN/A
12:20 PM57 °FSprinkles. Broken clouds.12 mph77%29.68 "HgN/A
12:04 PM57 °FSprinkles. Broken clouds.13 mph77%29.65 "HgN/A
11:50 AM57 °FBroken clouds.12 mph77%29.65 "HgN/A
11:20 AM57 °FBroken clouds.13 mph77%29.65 "HgN/A
10:50 AM59 °FBroken clouds.10 mph72%29.65 "HgN/A
10:20 AM59 °FBroken clouds.6 mph77%29.65 "HgN/A
9:50 AM55 °FBroken clouds.7 mph82%29.65 "HgN/A
9:20 AM52 °FBroken clouds.6 mph94%29.65 "HgN/A
Weather by CustomWeather, © 2015

See weather overviewHow to use our weather pages